Weather History for KJMR - September, 2014

Change the Weather History Date:

Monday, September 1, 2014

  Actual Average Record
Temperature  
Mean Temperature 64 °F -  
Max Temperature 73 °F 76 °F 92 °F (1937)
Min Temperature 55 °F 50 °F 29 °F (1974)
Degree Days  
Heating Degree Days 1    
Growing Degree Days 14 (Base 50)    
Moisture  
Dew Point 56 °F    
Average Humidity 79    
Maximum Humidity 100    
Minimum Humidity 44    
Precipitation  
Precipitation 1.08 in - - ()
Sea Level Pressure  
Sea Level Pressure 29.71 in    
Wind  
Wind Speed 4 mph (WNW)    
Max Wind Speed 13 mph    
Max Gust Speed 20 mph    
Visibility 9 miles    
Events Rain    
Averages and records for this station are not official NWS values.
T = Trace of Precipitation, MM = Missing Value Source: NWS Daily Summary

Daily Weather History Graph

Daily Weather History Graph

Search for Another Location

Airport or City:

Trip Planner

Search our weather history database for the weather conditions in past years. The results will help you decide how hot, cold, wet, or windy it might be!

Date:

Astronomy

Sep. 01, 2014 Rise Set
Actual Time 6:34 AM CDT 7:51 PM CDT
Civil Twilight 6:03 AM CDT 8:21 PM CDT
Nautical Twilight 5:25 AM CDT 8:58 PM CDT
Astronomical Twilight 4:46 AM CDT 9:38 PM CDT
Moon 1:41 PM CDT (9/1) 11:31 PM CDT (9/1)
Length of Visible Light 14h 18m
Length of Day
13h 17m
Waxing Crescent, 42% of the Moon is Illuminated
Sep 1
Waxing Crescent
Sep 2
First Quarter
Sep 8
Full
Sep 15
Last Quarter
Sep 24
New

Hourly Weather History & Observations

Time (CDT) Temp. Dew Point Humidity Pressure Visibility Wind Dir Wind Speed Gust Speed Precip Events Conditions
12:13 AM 60.8 °F 60.8 °F 100% 29.65 in 10.0 mi Calm Calm - N/A Rain Light Rain
12:33 AM 60.8 °F 60.8 °F 100% 29.65 in 7.0 mi Calm Calm - 0.02 in Rain Light Rain
12:53 AM 60.8 °F 59.0 °F 94% 29.64 in 7.0 mi Calm Calm - 0.04 in Rain Light Rain
1:13 AM 60.8 °F 60.8 °F 100% 29.65 in 10.0 mi Calm Calm - 0.01 in Rain Light Rain
1:33 AM 59.0 °F 59.0 °F 100% 29.65 in 7.0 mi Calm Calm - 0.02 in Rain Light Rain
1:53 AM 60.8 °F 59.0 °F 94% 29.64 in 7.0 mi Calm Calm - 0.02 in   Drizzle
2:13 AM 60.8 °F 60.8 °F 100% 29.63 in 10.0 mi Calm Calm - N/A Rain Light Rain
2:32 AM 60.8 °F 60.8 °F 100% 29.62 in 10.0 mi Calm Calm - N/A   Mostly Cloudy
2:53 AM 60.8 °F 60.8 °F 100% 29.63 in 4.0 mi SSW 4.6 mph - N/A   Overcast
3:13 AM 62.6 °F 62.6 °F 100% 29.63 in 10.0 mi SW 5.8 mph - N/A   Overcast
3:33 AM 59.0 °F 59.0 °F 100% 29.63 in 1.8 mi WNW 9.2 mph 17.3 mph 0.37 in Rain Heavy Rain
3:53 AM 60.8 °F 60.8 °F 100% 29.65 in 5.0 mi SW 3.5 mph - 0.53 in Rain Heavy Rain
4:13 AM 60.8 °F 59.0 °F 94% 29.65 in 7.0 mi Calm Calm - 0.05 in Rain Rain
4:33 AM 60.8 °F 60.8 °F 100% 29.65 in 4.0 mi SSW 5.8 mph - 0.13 in Rain Heavy Rain
4:53 AM 60.8 °F 59.0 °F 94% 29.65 in 5.0 mi South 3.5 mph - 0.30 in Rain Rain
5:13 AM 59.0 °F 59.0 °F 100% 29.65 in 7.0 mi Calm Calm - 0.04 in Rain Rain
5:33 AM 59.0 °F 59.0 °F 100% 29.65 in 5.0 mi Calm Calm - 0.11 in Rain Rain
5:53 AM 59.0 °F 57.2 °F 94% 29.65 in 10.0 mi SSW 3.5 mph - 0.14 in Rain Rain
6:13 AM 59.0 °F 59.0 °F 100% 29.66 in 7.0 mi SW 4.6 mph - 0.01 in Rain Rain
6:33 AM 60.8 °F 60.8 °F 100% 29.66 in 10.0 mi Calm Calm - 0.03 in Rain Light Rain
6:53 AM 59.0 °F 59.0 °F 100% 29.65 in 10.0 mi NW 4.6 mph - 0.05 in Rain Light Rain
7:13 AM 57.2 °F 55.4 °F 94% 29.63 in 10.0 mi NW 10.4 mph - N/A   Scattered Clouds
7:53 AM 60.8 °F 59.0 °F 94% 29.65 in 10.0 mi Calm Calm - N/A   Clear
8:13 AM 62.6 °F 62.6 °F 100% 29.65 in 10.0 mi Calm Calm - N/A   Clear
8:33 AM 60.8 °F 60.8 °F 100% 29.66 in 10.0 mi Calm Calm - N/A   Clear
8:53 AM 60.8 °F 60.8 °F 100% 29.66 in 10.0 mi NNW 4.6 mph - N/A   Clear
9:13 AM 62.6 °F 62.6 °F 100% 29.67 in 10.0 mi NW 9.2 mph - N/A   Clear
9:33 AM 60.8 °F 60.8 °F 100% 29.68 in 10.0 mi NW 5.8 mph - N/A   Scattered Clouds
9:52 AM 62.6 °F 60.8 °F 94% 29.68 in 10.0 mi NW 8.1 mph - N/A   Scattered Clouds
10:13 AM 60.8 °F 59.0 °F 94% 29.70 in 10.0 mi NW 9.2 mph - N/A   Scattered Clouds
10:33 AM 62.6 °F 60.8 °F 94% 29.71 in 10.0 mi NW 10.4 mph - N/A   Scattered Clouds
10:53 AM 66.2 °F 57.2 °F 73% 29.71 in 10.0 mi WNW 11.5 mph - N/A   Scattered Clouds
11:12 AM 64.4 °F 55.4 °F 73% 29.72 in 10.0 mi NNW 9.2 mph - N/A   Mostly Cloudy
11:33 AM 68.0 °F 57.2 °F 68% 29.72 in 10.0 mi NW 9.2 mph - N/A   Scattered Clouds
11:53 AM 69.8 °F 59.0 °F 68% 29.72 in 10.0 mi NW 9.2 mph - N/A   Scattered Clouds
12:13 PM 69.8 °F 59.0 °F 68% 29.72 in 10.0 mi NNW 8.1 mph - N/A   Scattered Clouds
12:33 PM 69.8 °F 55.4 °F 60% 29.73 in 10.0 mi WNW 9.2 mph - N/A   Scattered Clouds
12:52 PM 69.8 °F 55.4 °F 60% 29.73 in 10.0 mi NW 10.4 mph - N/A   Scattered Clouds
1:13 PM 69.8 °F 55.4 °F 60% 29.73 in 10.0 mi WNW 8.1 mph - N/A   Scattered Clouds
1:32 PM 69.8 °F 55.4 °F 60% 29.73 in 10.0 mi West 9.2 mph - N/A   Scattered Clouds
1:53 PM 69.8 °F 51.8 °F 53% 29.74 in 10.0 mi WNW 9.2 mph - N/A   Clear
2:13 PM 69.8 °F 53.6 °F 56% 29.74 in 10.0 mi NW 11.5 mph - N/A   Clear
2:33 PM 69.8 °F 48.2 °F 46% 29.75 in 10.0 mi WNW 9.2 mph - N/A   Clear
2:53 PM 69.8 °F 51.8 °F 53% 29.74 in 10.0 mi NW 12.7 mph - N/A   Clear
3:12 PM 71.6 °F 50.0 °F 46% 29.74 in 10.0 mi WNW 10.4 mph - N/A   Clear
3:33 PM 71.6 °F 51.8 °F 50% 29.74 in 10.0 mi NW 11.5 mph 19.6 mph N/A   Scattered Clouds
3:53 PM 71.6 °F 50.0 °F 46% 29.75 in 10.0 mi West 9.2 mph - N/A   Scattered Clouds
4:13 PM 69.8 °F 51.8 °F 53% 29.75 in 10.0 mi WNW 9.2 mph - N/A   Clear
4:33 PM 73.4 °F 50.0 °F 44% 29.75 in 10.0 mi WNW 10.4 mph 17.3 mph N/A   Scattered Clouds
4:52 PM 71.6 °F 51.8 °F 50% 29.75 in 10.0 mi West 10.4 mph - N/A   Clear
5:13 PM 71.6 °F 50.0 °F 46% 29.75 in 10.0 mi West 10.4 mph 17.3 mph N/A   Clear
5:32 PM 69.8 °F 50.0 °F 49% 29.75 in 10.0 mi WNW 8.1 mph - N/A   Clear
5:53 PM 69.8 °F 50.0 °F 49% 29.75 in 10.0 mi WNW 9.2 mph - N/A   Clear
6:13 PM 69.8 °F 51.8 °F 53% 29.76 in 10.0 mi WNW 6.9 mph - N/A   Clear
6:32 PM 69.8 °F 51.8 °F 53% 29.76 in 10.0 mi West 4.6 mph - N/A   Clear
6:53 PM 69.8 °F 53.6 °F 56% 29.76 in 10.0 mi Calm Calm - N/A   Clear
7:12 PM 68.0 °F 51.8 °F 56% 29.76 in 10.0 mi Calm Calm - N/A   Clear
7:33 PM 64.4 °F 55.4 °F 73% 29.77 in 10.0 mi Calm Calm - N/A   Clear
7:53 PM 62.6 °F 55.4 °F 77% 29.78 in 10.0 mi Calm Calm - N/A   Clear
8:12 PM 60.8 °F 55.4 °F 82% 29.79 in 10.0 mi Calm Calm - N/A   Clear
8:33 PM 60.8 °F 55.4 °F 82% 29.79 in 10.0 mi Calm Calm - N/A   Clear
8:53 PM 64.4 °F 55.4 °F 73% 29.79 in 10.0 mi Calm Calm - N/A   Clear
9:13 PM 62.6 °F 55.4 °F 77% 29.80 in 10.0 mi Calm Calm - N/A   Clear
9:33 PM 57.2 °F 53.6 °F 88% 29.81 in 10.0 mi Calm Calm - N/A   Clear
9:53 PM 55.4 °F 55.4 °F 100% 29.81 in 10.0 mi Calm Calm - N/A   Scattered Clouds
10:13 PM 59.0 °F 55.4 °F 88% 29.81 in 10.0 mi Calm Calm - N/A   Scattered Clouds
10:32 PM 62.6 °F 55.4 °F 77% 29.82 in 10.0 mi NW 8.1 mph 17.3 mph N/A   Scattered Clouds
10:53 PM 60.8 °F 51.8 °F 72% 29.83 in 10.0 mi WNW 3.5 mph - N/A   Clear
11:13 PM 60.8 °F 53.6 °F 77% 29.82 in 10.0 mi Calm Calm - N/A   Scattered Clouds
11:33 PM 59.0 °F 51.8 °F 77% 29.81 in 10.0 mi Calm Calm - N/A   Scattered Clouds
11:52 PM 59.0 °F 51.8 °F 77% 29.80 in 10.0 mi SW 3.5 mph - N/A   Clear